Flag for Austria Weather past 2 weeks in Traun, Upper Austria, Austria

Now
59 °F

Passing clouds.


Feels Like: 60 °F
Forecast: 58 / 66 °F
Wind: 3 mph from Northeast

Location: Linz / Hoersching-Flughafen

Current Time: Jul 28, 2015 at 6:25:18 AM

Latest Report: Jul 28, 2015 at 5:20 AM


Visibility: N/A

Pressure: 29.83 "Hg

Humidity: 88%

Dew point: 55 °F

Location of TraunLocation

Historic Weather in Traun — Graph

°F

Traun temperature yesterday

Maximum temperature yesterday: 79 °F (at 3:50 PM)
Minimum temperature yesterday: 57 °F (at 6:20 AM)
Average temperature yesterday: 65 °F

Past Weeks' High & Low Weather Summary

 TemperatureHumidityPressure
High97 °F (Jul 22, 2:50 PM)100% (Jul 14, 6:20 AM)30.15 "Hg (Jul 14, 6:20 AM)
Low55 °F (Jul 26, 5:20 AM)22% (Jul 22, 2:50 PM)29.68 "Hg (Jul 25, 2:50 AM)
Average75 °F61%29.97 "Hg
* Reported Jul 13 4:20 AM — Jul 28 4:50 AM, Traun, Weather by CustomWeather, © 2015

Note: Actual official high and low records may vary slightly from our data, if they occured in-between our weather recording intervals... More about our weather records

Advertising

Traun weather history for previous 24 hours

 ConditionsComfort  
Time TempWeatherWind HumidityBarometerVisibility
4:50 AM
Tue, Jul 28
59 °FPassing clouds.3 mph88%29.83 "HgN/A
4:20 AM59 °FPassing clouds.3 mph94%29.83 "HgN/A
3:50 AM59 °FPassing clouds.5 mph94%29.83 "HgN/A
3:20 AM61 °FPassing clouds.2 mph88%29.83 "HgN/A
2:50 AM59 °FPassing clouds.2 mph94%29.83 "HgN/A
2:20 AM61 °FPassing clouds.3 mph88%29.83 "HgN/A
1:50 AM61 °FPassing clouds.2 mph83%29.83 "HgN/A
1:20 AM59 °FOvercast.1 mph94%29.83 "HgN/A
12:50 AM61 °FPassing clouds.3 mph83%29.83 "HgN/A
12:20 AM61 °FPassing clouds.2 mph83%29.83 "HgN/A
11:50 PM
Mon, Jul 27
61 °FPassing clouds.1 mph83%29.83 "HgN/A
11:20 PM63 °FClear.2 mph77%29.83 "Hg10 mi
10:50 PM61 °FPassing clouds.6 mph83%29.83 "HgN/A
10:20 PM63 °FPassing clouds.5 mph77%29.83 "HgN/A
9:50 PM63 °FPassing clouds.2 mph77%29.83 "HgN/A
9:20 PM63 °FPassing clouds.3 mph77%29.80 "HgN/A
8:50 PM66 °FPassing clouds.7 mph64%29.80 "HgN/A
8:20 PM66 °FPassing clouds.7 mph64%29.77 "HgN/A
7:50 PM68 °FPassing clouds.6 mph60%29.77 "HgN/A
7:20 PM66 °FPassing clouds.7 mph68%29.77 "HgN/A
6:50 PM66 °FScattered clouds.10 mph68%29.74 "HgN/A
6:20 PM64 °FScattered clouds.23 mph78%29.77 "HgN/A
5:50 PM77 °FPassing clouds.15 mph39%29.71 "HgN/A
5:20 PM77 °FPassing clouds.9 mph42%29.71 "HgN/A
4:50 PM79 °FScattered clouds.20 mph34%29.71 "HgN/A
4:20 PM79 °FPassing clouds.22 mph34%29.71 "HgN/A
3:50 PM79 °FScattered clouds.20 mph37%29.71 "HgN/A
3:20 PM75 °FScattered clouds.16 mph47%29.71 "HgN/A
2:50 PM75 °FScattered clouds.14 mph50%29.71 "HgN/A
2:20 PM73 °FScattered clouds.13 mph53%29.74 "HgN/A
1:50 PM73 °FScattered clouds.12 mph57%29.74 "HgN/A
1:20 PM72 °FScattered clouds.15 mph57%29.77 "HgN/A
12:50 PM66 °FBroken clouds.12 mph73%29.77 "HgN/A
12:20 PM68 °FPartly sunny.12 mph73%29.77 "HgN/A
11:50 AM66 °FPartly sunny.6 mph78%29.80 "HgN/A
11:20 AM64 °FBroken clouds.5 mph83%29.80 "HgN/A
10:50 AM64 °FBroken clouds.6 mph83%29.80 "HgN/A
10:20 AM63 °FBroken clouds.3 mph83%29.80 "HgN/A
9:50 AM61 °FPartly sunny.2 mph88%29.80 "HgN/A
9:20 AM59 °FLight rain. Broken clouds.7 mph94%29.83 "HgN/A
8:50 AM59 °FLight rain. Broken clouds.6 mph94%29.80 "HgN/A
8:20 AM59 °FLight rain. Broken clouds.5 mph94%29.80 "HgN/A
7:50 AM59 °FBroken clouds.7 mph94%29.80 "HgN/A
7:20 AM59 °FBroken clouds.5 mph94%29.80 "HgN/A
6:50 AM59 °FBroken clouds.6 mph94%29.80 "HgN/A
6:20 AM57 °FLight rain. Partly cloudy.5 mph100%29.80 "HgN/A
Weather by CustomWeather, © 2015

See weather overviewHow to use our weather pages